FW8254 Weather Reports


time (UTC)temp
F
wind
direction
speed
knots
gust
knots
rain 1hr
in
rain 24hr
in
rain mn
in
humidity
%
barometer
mb
20240723060553 76 60 0.0 0.0 0.00 0.00 0.00 86 1011.6
20240723060053 76 61 0.0 0.9 0.00 0.00 0.00 86 1011.5
20240723055548 76 39 0.0 0.9 0.00 0.00 0.00 86 1011.5
20240723055047 77 40 0.0 0.9 0.00 0.00 0.00 86 1011.5
20240723054543 77 39 0.0 0.0 0.00 0.00 0.00 85 1011.4
20240723054041 77 40 0.0 0.0 0.00 0.00 0.00 85 1011.4
20240723053537 77 40 0.0 0.9 0.00 0.00 0.00 85 1011.6
20240723053035 77 41 0.0 0.0 0.00 0.00 0.00 86 1011.3
20240723052534 77 41 0.0 0.0 0.00 0.00 0.00 86 1011.5
20240723052031 77 41 0.0 0.0 0.00 0.00 0.00 86 1011.4
20240723051509 77 41 0.0 0.0 0.00 0.00 0.00 86 1011.4
20240723051006 77 41 0.0 0.9 0.00 0.00 0.00 86 1011.2
20240723050505 77 58 0.9 0.9 0.00 0.00 0.00 85 1011.3
20240723050004 77 27 0.0 0.0 0.00 0.00 0.00 84 1011.6
20240723045501 77 27 0.0 0.0 0.00 0.00 0.00 84 1011.7
20240723045001 77 27 0.0 0.0 0.00 0.00 0.00 85 1011.5
20240723044500 77 27 0.9 0.9 0.00 0.00 0.00 84 1011.4
20240723043958 77 26 0.0 0.0 0.00 0.00 0.00 84 1011.3
20240723043456 77 26 0.0 0.0 0.00 0.00 0.00 85 1011.5
20240723042955 77 26 0.0 0.0 0.00 0.00 0.00 84 1011.5
20240723042453 77 26 0.9 0.9 0.00 0.00 0.00 83 1011.3
20240723041951 78 19 0.9 1.7 0.00 0.00 0.00 83 1011.3
20240723041449 77 328 0.9 1.7 0.00 0.00 0.00 84 1011.2
20240723040946 77 25 0.0 0.0 0.00 0.00 0.00 82 1011.4
20240723040444 77 25 0.0 0.0 0.00 0.00 0.00 82 1011.6
20240723035940 77 25 0.0 0.0 0.00 0.42 0.42 81 1011.4
20240723035439 78 25 0.0 0.0 0.00 0.42 0.42 81 1011.3
20240723034936 78 25 0.0 0.0 0.00 0.42 0.42 81 1011.2
20240723034433 78 25 0.0 0.0 0.00 0.42 0.42 80 1011.3
20240723033932 78 25 0.0 0.0 0.00 0.42 0.42 80 1011.3
20240723033431 78 25 0.0 0.0 0.00 0.42 0.42 80 1011.4
20240723032928 78 25 0.0 0.0 0.00 0.42 0.42 81 1011.6
20240723032426 78 25 0.0 0.0 0.00 0.42 0.42 80 1011.6
20240723031926 78 25 0.0 0.0 0.00 0.42 0.42 79 1011.7
20240723031425 78 25 0.0 0.0 0.00 0.42 0.42 79 1011.5
20240723030924 78 25 0.0 0.0 0.00 0.42 0.42 79 1011.5
20240723030423 78 25 0.0 0.0 0.00 0.42 0.42 79 1011.6
20240723025922 79 25 0.0 0.0 0.00 0.42 0.42 79 1011.6
20240723025420 79 25 0.0 0.0 0.00 0.42 0.42 77 1011.6
20240723024919 80 25 0.0 0.0 0.00 0.42 0.42 76 1011.4
20240723024417 80 25 0.0 0.0 0.00 0.42 0.42 76 1011.6
20240723023915 80 25 0.0 0.9 0.00 0.42 0.42 76 1011.5
20240723023415 80 24 0.0 1.7 0.00 0.42 0.42 76 1011.3
20240723022913 80 23 0.0 0.0 0.00 0.42 0.42 77 1011.1
20240723022412 80 23 0.0 0.0 0.00 0.42 0.42 77 1011.2
20240723021910 81 23 0.0 0.0 0.00 0.42 0.42 76 1011.2
20240723021409 81 19 0.9 1.7 0.00 0.42 0.42 77 1011.0
20240723020906 81 316 2.6 4.3 0.00 0.42 0.42 77 1011.1
20240723020406 81 9 0.9 1.7 0.00 0.42 0.42 78 1011.0
20240723015907 81 5 0.9 1.7 0.00 0.42 0.42 79 1010.9
20240723015405 81 11 0.9 1.7 0.00 0.42 0.42 79 1010.7
20240723014903 81 13 0.9 1.7 0.00 0.42 0.42 79 1010.9
20240723014403 82 14 0.9 1.7 0.00 0.42 0.42 79 1010.5
20240723013903 82 319 2.6 2.6 0.00 0.42 0.42 80 1010.5
20240723013402 82 317 2.6 2.6 0.00 0.42 0.42 79 1010.6
20240723012901 82 18 1.7 4.3 0.00 0.42 0.42 80 1010.5
20240723012400 82 352 1.7 4.3 0.00 0.42 0.42 79 1010.2
20240723011857 82 312 1.7 1.7 0.00 0.42 0.42 78 1010.4
20240723011356 82 13 0.9 0.9 0.00 0.42 0.42 78 1010.4
20240723010855 82 25 0.9 0.9 0.00 0.42 0.42 77 1010.2
20240723010354 83 25 0.9 0.9 0.00 0.42 0.42 76 1010.3
20240723005851 83 355 1.7 2.6 0.00 0.42 0.42 76 1010.2
20240723005350 83 317 2.6 2.6 0.00 0.42 0.42 76 1010.2
20240723004846 83 343 1.7 2.6 0.00 0.42 0.42 76 1010.1
20240723004343 83 294 3.5 4.3 0.00 0.42 0.42 75 1010.0
20240723003841 83 304 3.5 4.3 0.00 0.42 0.42 76 1009.9
20240723003338 84 282 3.5 5.2 0.00 0.42 0.42 76 1009.9
20240723002833 84 296 3.5 5.2 0.00 0.42 0.42 75 1009.7
20240723002331 84 300 3.5 4.3 0.00 0.42 0.42 76 1009.8
20240723001830 84 295 3.5 4.3 0.00 0.42 0.42 74 1009.6
20240723001329 85 297 4.3 5.2 0.00 0.42 0.42 74 1009.6
20240723000829 85 292 4.3 5.2 0.00 0.42 0.42 74 1009.5
20240723000328 85 282 4.3 5.2 0.00 0.42 0.42 73 1009.3
20240722235825 85 302 2.6 4.3 0.00 0.42 0.42 74 1009.1
20240722235323 85 308 2.6 4.3 0.00 0.42 0.42 73 1009.2
20240722234824 86 275 4.3 5.2 0.00 0.42 0.42 70 1009.3
20240722234323 86 273 4.3 5.2 0.00 0.42 0.42 70 1009.4
20240722233822 86 284 4.3 5.2 0.00 0.42 0.42 71 1009.2
20240722233320 86 287 3.5 4.3 0.00 0.42 0.42 70 1008.9
20240722232819 86 311 2.6 2.6 0.00 0.42 0.42 72 1009.3
20240722232318 86 305 2.6 5.2 0.00 0.42 0.42 71 1009.1
20240722231816 86 271 4.3 6.1 0.00 0.42 0.42 71 1009.2
20240722231315 85 281 6.1 6.1 0.00 0.42 0.42 70 1009.1
20240722230813 85 302 3.5 6.1 0.00 0.42 0.42 71 1008.8
20240722230311 85 299 4.3 5.2 0.00 0.42 0.42 70 1008.8
20240722225810 85 293 2.6 5.2 0.00 0.42 0.42 69 1008.9
20240722225309 86 294 4.3 6.1 0.00 0.42 0.42 69 1008.9
20240722224808 86 266 3.5 6.1 0.00 0.42 0.42 68 1008.9
20240722224308 87 258 3.5 5.2 0.00 0.42 0.42 65 1008.7
20240722223807 88 283 4.3 6.1 0.00 0.42 0.42 63 1008.7
20240722223304 88 288 4.3 6.1 0.00 0.42 0.42 65 1008.9
20240722222804 88 345 1.7 2.6 0.00 0.42 0.42 65 1008.8
20240722222306 88 302 2.6 2.6 0.00 0.42 0.42 63 1008.7
20240722221800 87 297 2.6 4.3 0.00 0.42 0.42 65 1008.7
20240722221259 88 315 1.7 2.6 0.00 0.42 0.42 65 1008.8
20240722220759 88 263 3.5 5.2 0.00 0.42 0.42 65 1008.7
20240722220258 88 275 3.5 4.3 0.00 0.42 0.42 63 1008.5
20240722215758 88 294 3.5 7.0 0.00 0.42 0.42 64 1008.6
20240722215256 88 297 3.5 5.2 0.00 0.42 0.42 62 1008.6
20240722214754 88 327 1.7 2.6 0.00 0.42 0.42 64 1008.6
20240722214254 88 294 3.5 5.2 0.00 0.42 0.42 63 1008.8
20240722213750 87 283 4.3 5.2 0.00 0.42 0.42 62 1008.8
20240722213248 87 310 3.5 4.3 0.00 0.42 0.42 64 1008.9
20240722212746 87 269 2.6 5.2 0.00 0.42 0.42 63 1008.9
20240722212245 87 315 4.3 5.2 0.00 0.42 0.42 64 1008.8
20240722211743 87 295 4.3 6.1 0.00 0.42 0.42 62 1008.8
20240722211242 88 289 7.0 7.8 0.00 0.42 0.42 65 1008.8
20240722210739 88 280 4.3 6.1 0.00 0.42 0.42 63 1008.9
20240722210238 87 344 4.3 5.2 0.00 0.42 0.42 63 1008.9
20240722205738 87 283 7.0 7.8 0.00 0.42 0.42 63 1009.0
20240722205235 88 304 5.2 7.0 0.00 0.42 0.42 62 1009.1
20240722204735 88 281 5.2 8.7 0.00 0.42 0.42 61 1008.9
20240722204234 87 288 3.5 5.2 0.00 0.42 0.42 64 1009.1
20240722203731 87 281 4.3 6.1 0.00 0.42 0.42 62 1009.1
20240722203230 87 287 3.5 6.1 0.00 0.42 0.42 63 1009.1
20240722202725 87 341 2.6 6.1 0.00 0.42 0.42 64 1009.2
20240722202225 87 304 3.5 6.1 0.00 0.42 0.42 63 1009.2
20240722201723 87 277 5.2 8.7 0.00 0.42 0.42 64 1009.3
20240722201220 87 260 7.8 8.7 0.00 0.42 0.42 65 1009.3
20240722200719 87 269 5.2 7.0 0.00 0.42 0.42 64 1009.2
20240722200218 87 274 6.1 9.6 0.00 0.42 0.42 63 1009.6
20240722195717 86 275 4.3 7.0 0.00 0.42 0.42 67 1009.6
20240722195213 86 275 6.1 6.1 0.00 0.42 0.42 68 1009.8
20240722194711 86 273 5.2 12.2 0.00 0.42 0.42 67 1009.7
20240722194209 86 273 7.0 11.3 0.00 0.42 0.42 66 1009.6
20240722193706 86 305 2.6 4.3 0.00 0.42 0.42 65 1009.9
20240722193204 87 280 3.5 5.2 0.00 0.42 0.42 66 1009.8
20240722192703 87 315 1.7 4.3 0.00 0.42 0.42 63 1009.8
20240722192200 87 217 2.6 5.2 0.00 0.42 0.42 63 1010.1
20240722191658 87 301 2.6 5.2 0.00 0.42 0.42 64 1010.0
20240722191158 87 273 3.5 6.1 0.00 0.42 0.42 62 1010.2
20240722190653 87 272 4.3 7.0 0.00 0.42 0.42 62 1010.2
20240722190152 87 295 4.3 5.2 0.00 0.42 0.42 63 1010.3
20240722185651 87 290 3.5 5.2 0.00 0.42 0.42 66 1010.3
20240722185148 87 275 6.1 6.1 0.00 0.42 0.42 65 1010.2
20240722184647 86 286 3.5 5.2 0.00 0.42 0.42 63 1010.2
20240722184145 87 268 4.3 9.6 0.00 0.42 0.42 62 1010.5
20240722183643 87 253 4.3 5.2 0.00 0.42 0.42 61 1010.5
20240722183140 87 293 2.6 4.3 0.00 0.42 0.42 64 1010.5
20240722182640 86 291 2.6 4.3 0.00 0.42 0.42 64 1010.8
20240722182137 86 288 6.1 7.0 0.00 0.42 0.42 68 1010.7
20240722181635 86 266 3.5 6.1 0.00 0.42 0.42 67 1010.8
20240722181134 86 293 6.1 7.0 0.00 0.42 0.42 65 1011.0
20240722180630 86 275 4.3 7.0 0.00 0.42 0.42 64 1010.7
20240722180128 86 277 5.2 6.1 0.00 0.42 0.42 64 1010.9
20240722175625 85 300 3.5 4.3 0.00 0.42 0.42 66 1011.0
20240722175124 85 301 2.6 5.2 0.00 0.42 0.42 68 1011.0
20240722174623 85 301 4.3 7.0 0.00 0.42 0.42 67 1011.2
20240722174121 85 294 4.3 7.8 0.00 0.42 0.42 64 1011.1
20240722173620 85 279 6.1 7.0 0.00 0.42 0.42 69 1011.2
20240722173119 85 358 1.7 2.6 0.00 0.42 0.42 70 1011.1
20240722172616 84 356 1.7 4.3 0.00 0.42 0.42 72 1011.4
20240722172116 84 356 1.7 2.6 0.00 0.42 0.42 70 1011.1
20240722171613 84 273 4.3 7.0 0.00 0.42 0.42 70 1011.6
20240722171111 84 313 3.5 5.2 0.00 0.42 0.42 70 1011.5
20240722170607 84 286 4.3 6.1 0.00 0.42 0.42 69 1011.5
20240722170106 84 22 0.9 2.6 0.00 0.42 0.42 71 1011.7
20240722165600 84 299 2.6 2.6 0.00 0.42 0.42 71 1011.8
20240722165100 84 20 0.9 2.6 0.00 0.42 0.42 68 1011.8
20240722164559 84 25 0.9 2.6 0.00 0.42 0.42 70 1011.8
20240722164059 83 329 2.6 7.8 0.00 0.42 0.42 72 1011.8
20240722163558 83 279 5.2 6.1 0.00 0.42 0.42 72 1011.8
20240722163057 83 1 1.7 2.6 0.00 0.42 0.42 73 1011.6
20240722162556 83 303 2.6 5.2 0.00 0.42 0.42 72 1011.8
20240722162054 83 297 2.6 2.6 0.00 0.42 0.42 73 1011.9
20240722161553 83 281 4.3 5.2 0.00 0.42 0.42 72 1011.8
20240722161052 83 15 1.7 1.7 0.00 0.42 0.42 70 1011.9
20240722160550 83 277 4.3 7.8 0.00 0.42 0.42 72 1011.9
20240722160049 83 24 0.0 2.6 0.00 0.42 0.42 73 1012.0
20240722155549 82 58 0.9 2.6 0.00 0.42 0.42 73 1012.1
20240722155048 82 267 2.6 2.6 0.00 0.42 0.42 76 1012.0
20240722154546 82 300 2.6 6.1 0.00 0.42 0.42 75 1012.0
20240722154044 82 31 0.0 1.7 0.00 0.42 0.42 75 1012.0
20240722153541 82 58 0.9 0.9 0.00 0.42 0.42 77 1012.1
20240722153040 82 25 0.9 1.7 0.00 0.42 0.42 78 1012.1
20240722152539 81 25 0.9 1.7 0.00 0.42 0.42 78 1012.4
20240722152038 81 12 1.7 1.7 0.00 0.42 0.42 79 1012.1
20240722151536 81 307 2.6 4.3 0.00 0.42 0.42 80 1012.2
20240722151033 81 14 1.7 1.7 0.00 0.42 0.42 82 1012.0
20240722150529 80 4 0.9 1.7 0.00 0.42 0.42 82 1012.2
20240722150029 80 287 3.5 4.3 0.00 0.42 0.42 82 1012.0
20240722145526 80 0 1.7 5.2 0.00 0.42 0.42 83 1012.1
20240722145025 80 30 0.9 2.6 0.00 0.42 0.42 84 1011.8
20240722144523 80 32 0.0 1.7 0.00 0.42 0.42 83 1011.8
20240722144021 80 21 1.7 4.3 0.00 0.42 0.42 84 1011.9
20240722143517 80 331 2.6 2.6 0.00 0.42 0.42 84 1011.7
20240722143016 79 31 0.0 0.9 0.00 0.42 0.42 84 1011.8
20240722142516 79 328 2.6 4.3 0.00 0.42 0.42 83 1011.8
20240722142014 79 0 1.7 1.7 0.00 0.42 0.42 86 1011.6
20240722141513 79 302 2.6 4.3 0.00 0.42 0.42 85 1011.4
20240722141012 78 325 2.6 2.6 0.00 0.42 0.42 87 1011.7
20240722140509 78 21 0.9 1.7 0.00 0.42 0.42 87 1011.7
20240722140008 78 356 1.7 1.7 0.00 0.42 0.42 88 1011.7
20240722135505 78 328 2.6 2.6 0.00 0.42 0.42 90 1011.7
20240722135004 78 7 0.9 1.7 0.00 0.42 0.42 91 1011.6
20240722134503 77 19 1.7 2.6 0.00 0.42 0.42 91 1011.9
20240722134003 77 28 0.9 1.7 0.00 0.42 0.42 91 1011.7
20240722133500 77 23 0.9 1.7 0.00 0.42 0.42 92 1011.7
20240722132959 77 59 0.9 0.9 0.00 0.42 0.42 93 1011.6
20240722132458 76 57 0.0 0.9 0.00 0.42 0.42 93 1011.6
20240722131956 76 27 0.9 1.7 0.00 0.42 0.42 94 1011.7
20240722131453 75 20 0.9 0.9 0.00 0.42 0.42 95 1011.6
20240722130953 75 47 0.0 0.9 0.00 0.42 0.42 96 1011.6
20240722130452 75 23 0.9 0.9 0.00 0.42 0.42 97 1011.7
20240722125950 75 68 0.9 1.7 0.00 0.42 0.42 97 1011.8
20240722125446 74 18 0.9 0.9 0.00 0.42 0.42 98 1011.6
20240722124944 75 19 0.9 0.9 0.00 0.42 0.42 98 1011.7
20240722124441 75 36 0.0 0.9 0.00 0.42 0.42 98 1011.7
20240722123940 75 8 1.7 1.7 0.00 0.42 0.42 98 1011.6
20240722123438 75 12 1.7 2.6 0.00 0.42 0.42 98 1011.8
20240722122936 75 10 1.7 1.7 0.00 0.42 0.42 99 1011.8
20240722122435 74 29 0.0 1.7 0.00 0.42 0.42 99 1011.7
20240722121934 74 23 0.9 1.7 0.00 0.42 0.42 99 1011.6
20240722121431 75 21 0.9 1.7 0.00 0.42 0.42 99 1011.6
20240722120930 74 41 0.0 0.0 0.00 0.42 0.42 99 1011.4
20240722120429 74 44 0.0 0.0 0.00 0.42 0.42 99 1011.7
20240722115928 74 44 0.0 0.0 0.00 0.42 0.42 99 1011.3
20240722115426 74 44 0.0 0.0 0.00 0.42 0.42 99 1011.4
20240722114926 74 44 0.0 0.0 0.00 0.42 0.42 99 1011.5
20240722114425 74 44 0.0 0.0 0.00 0.42 0.42 99 1011.4
20240722113923 74 44 0.0 0.0 0.00 0.42 0.42 99 1011.3
20240722113419 74 46 0.0 0.0 0.00 0.42 0.42 99 1011.4
20240722112918 74 46 0.0 0.0 0.00 0.42 0.42 99 1011.1
20240722112418 74 45 0.0 0.0 0.00 0.42 0.42 99 1011.5
20240722111915 74 45 0.0 0.0 0.00 0.42 0.42 98 1011.3
20240722111412 74 45 0.0 0.0 0.00 0.42 0.42 98 1011.2
20240722110911 74 46 0.0 0.0 0.00 0.42 0.42 99 1011.4
20240722110408 74 46 0.0 0.0 0.00 0.42 0.42 98 1011.2
20240722105908 74 46 0.0 0.0 0.00 0.42 0.42 98 1011.4
20240722105406 74 45 0.0 0.0 0.00 0.42 0.42 98 1011.2
20240722104906 74 45 0.0 0.0 0.00 0.42 0.42 98 1011.1
20240722104404 74 45 0.0 0.0 0.00 0.42 0.42 98 1011.0
20240722103903 74 45 0.0 0.9 0.00 0.42 0.42 98 1011.3
20240722103400 73 45 0.0 0.0 0.00 0.42 0.42 98 1011.2
20240722102858 73 45 0.0 0.0 0.00 0.42 0.42 98 1011.2
20240722102355 74 45 0.0 0.0 0.00 0.42 0.42 98 1011.0
20240722101854 74 45 0.0 0.0 0.00 0.42 0.42 98 1011.2
20240722101352 74 45 0.0 0.0 0.00 0.42 0.42 98 1011.2
20240722100851 73 45 0.0 0.0 0.00 0.42 0.42 98 1010.9
20240722100349 73 45 0.0 0.0 0.00 0.42 0.42 98 1010.9
20240722095846 73 45 0.0 0.0 0.00 0.42 0.42 98 1010.7
20240722095345 73 45 0.0 0.0 0.00 0.42 0.42 98 1010.9
20240722094844 73 45 0.0 0.0 0.00 0.42 0.42 98 1010.9
20240722094342 73 45 0.0 0.0 0.00 0.42 0.42 98 1011.0
20240722093842 73 45 0.0 0.0 0.00 0.42 0.42 98 1010.7
20240722093339 73 45 0.0 0.0 0.00 0.42 0.42 98 1010.9
20240722092838 73 45 0.0 0.0 0.00 0.42 0.42 98 1010.6
20240722092336 73 45 0.0 0.0 0.00 0.42 0.42 98 1010.7
20240722091835 73 44 0.0 0.0 0.00 0.42 0.42 98 1010.6
20240722091335 73 44 0.0 0.0 0.00 0.42 0.42 98 1010.8
20240722090834 73 45 0.0 0.9 0.00 0.42 0.42 98 1010.5
20240722090333 73 44 0.0 0.0 0.00 0.42 0.42 98 1010.6
20240722085832 74 45 0.0 0.0 0.00 0.42 0.42 98 1010.5
20240722085330 74 44 0.0 0.0 0.00 0.42 0.42 98 1010.3
20240722084827 73 44 0.0 0.0 0.00 0.42 0.42 98 1010.5
20240722084326 73 44 0.0 0.0 0.00 0.42 0.42 98 1010.5
20240722083822 73 44 0.0 0.0 0.00 0.42 0.42 98 1010.5
20240722083321 73 44 0.0 0.0 0.00 0.42 0.42 98 1010.6
20240722082821 73 45 0.0 0.0 0.00 0.42 0.42 98 1010.4
20240722082318 73 44 0.0 0.0 0.00 0.42 0.42 98 1010.3
20240722081817 73 45 0.0 0.0 0.00 0.42 0.42 98 1010.5
20240722081317 73 44 0.0 0.0 0.00 0.42 0.42 98 1010.3
20240722080813 74 45 0.0 0.0 0.00 0.42 0.42 98 1010.2
20240722080309 74 44 0.0 0.0 0.00 0.42 0.42 98 1010.3
20240722075806 74 44 0.0 0.9 0.00 0.42 0.42 98 1010.1
20240722075307 73 44 0.0 0.9 0.00 0.42 0.42 98 1010.3
20240722074804 73 37 0.0 0.0 0.00 0.42 0.42 98 1010.3
20240722074303 74 37 0.0 0.0 0.00 0.42 0.42 98 1010.2
20240722073800 74 37 0.0 0.0 0.00 0.42 0.42 98 1010.4
20240722073259 74 37 0.0 0.0 0.00 0.42 0.42 98 1010.5
20240722072758 74 37 0.0 0.0 0.00 0.42 0.42 98 1010.4
20240722072256 74 37 0.0 0.0 0.00 0.42 0.42 97 1010.6
20240722071753 74 37 0.0 0.0 0.00 0.42 0.42 97 1010.6
20240722071251 74 37 0.0 0.0 0.00 0.42 0.42 97 1010.6
20240722070750 74 37 0.0 0.0 0.00 0.42 0.42 97 1010.7
20240722070250 74 37 0.0 0.0 0.00 0.42 0.42 97 1010.7
20240722065748 74 37 0.0 0.0 0.00 0.42 0.42 97 1010.6
20240722065246 74 36 0.0 0.9 0.00 0.42 0.42 97 1010.8
20240722064744 74 28 0.9 0.9 0.00 0.42 0.42 97 1010.6
20240722064243 74 30 0.9 0.9 0.00 0.42 0.42 97 1010.9
20240722063742 75 15 1.7 1.7 0.00 0.42 0.42 97 1010.8
20240722063241 75 13 1.7 1.7 0.00 0.42 0.42 97 1011.0
20240722062739 75 306 2.6 2.6 0.00 0.42 0.42 96 1010.8
20240722062238 75 21 0.9 1.7 0.00 0.42 0.42 96 1011.2
20240722061737 75 10 1.7 1.7 0.00 0.42 0.42 95 1011.2
20240722061236 74 37 0.0 0.9 0.00 0.42 0.42 95 1011.3